Guest
Share Topic Post by Read Reply Last Post
ขอบคุณสำหรับคำต... 2,546 4 18/01/2014 20:57:53
extra 820 1 18/01/2014 19:54:39
fencerman 948 2 18/01/2014 19:18:22
อยากถ่ายรูป 1,388 21 18/01/2014 17:23:52
lolamongkup 837 2 18/01/2014 16:49:00
Wee_S_Wong 2,257 18 18/01/2014 16:32:48
หูไม่ดี ห้ามผวน 1,202 7 18/01/2014 12:26:17
cchamorn 1,823 16 18/01/2014 11:58:53
Mixer 696 1 18/01/2014 11:32:59
ittichai k. 3,179 14 18/01/2014 10:54:55
rbrabbit 8,307 7 18/01/2014 03:09:42
Momay 1,145 5 18/01/2014 02:37:18
Me4tspin 945 2 18/01/2014 02:25:22
NUTTANICK 1,004 4 18/01/2014 01:01:20
JAS-39 785 1 17/01/2014 23:22:32
nongaloha 701 1 17/01/2014 23:20:37
porparty 829 5 17/01/2014 22:24:42
สมพร 684 2 17/01/2014 22:24:35
มือใหม่หัวใจว้า... 963 4 17/01/2014 22:11:43
taskmasterpp 700 2 17/01/2014 19:25:25
gamonoi 741 2 17/01/2014 17:57:35
satinn 1,427 5 17/01/2014 17:34:27
greeny057 849 1 17/01/2014 17:03:14
soryimlate 979 11 17/01/2014 16:00:42
zlakeaw 981 1 17/01/2014 15:17:48
toot 659 2 17/01/2014 15:14:39
BFMV3003 1,206 22 17/01/2014 13:16:27
nongaloha 821 2 17/01/2014 12:32:40
Parinnut 1,451 3 17/01/2014 09:24:46
Progreso 3,609 6 17/01/2014 08:33:00
hippoeg6 1,094 4 17/01/2014 02:47:27
heavyhex 1,591 19 17/01/2014 02:39:13
wattikorn 894 5 17/01/2014 01:57:31
champ2526 1,079 5 17/01/2014 00:12:00
Bom_baysinton 1,272 5 16/01/2014 23:19:47
flook16comza 1,108 4 16/01/2014 22:55:49
panda14 971 7 16/01/2014 22:25:17
mop01zeez 742 3 16/01/2014 22:23:33
sugarmaple 1,278 6 16/01/2014 22:12:40
Russianoptic 807 3 16/01/2014 19:56:05
punfree 2,920 19 16/01/2014 19:11:29
sommeawaya 756 0 16/01/2014 17:28:56
exxy112112 659 2 16/01/2014 17:19:29
Nickkk 739 2 16/01/2014 17:05:17
taskmasterpp 728 1 16/01/2014 16:18:45
dew22799 1,364 13 16/01/2014 16:05:45
Channpat 1,392 7 16/01/2014 15:50:53
toonmanga 1,034 2 16/01/2014 14:42:03
templeboy92 1,688 30 16/01/2014 14:19:17
สมพงษ์ 8,723 14 16/01/2014 13:44:07
32,451 - 32,500 of 90,013 items : << 645646647648649650651652653654655 >>

Contact

  • Munkonggadget
  • Munkonggadget Reviews
  • Munkonggadget Reviews
  • Munkonggadget Contact Us